Weather in Svystunivka

Ukraine / Luhansk Region     49°29′32″N   38°20′53″E
temp.,
°C
wind,
m/s
gust,
m/s
humid.,
%
clouds,
%
prec.,
mm/h
press.,
hPa
HPBL,
m
4 december, sat
sat423:00+9ssw91785100 0.0 1008807
02:00+9sw71387100 0.3 1008842
05:00+4nw5890100 2.1 1011473
08:00+3nw3693100 2.5 1014417
11:00+4nw3464100 0.0 1014668
14:00+3n2357100 0.1 1014616
17:00+3nne1356100 0.1 1014139
20:00+2ene3464100 0.3 1015567
5 december, sun
sun523:00+1e3680100 0.0 1014409
02:000ne378567 0.0 1014386
05:00−2ne41090100 0.0 1014290
08:00−1ne41084100 0.0 1014355
11:00+2ne467122 0.0 1014493
14:00+2ne456810 0.0 1014588
17:00−1ne348298 0.0 101675
20:00−1ene2485100 0.0 101768
6 december, mon
mon623:00−1e2289100 0.0 101832
02:00−1ene2392100 0.0 101977
05:000e2589100 0.0 1019182
08:000ese3692100 0.0 1019227
11:00+2sse4586100 0.0 1019435
14:00+2sse4686100 0.0 1019455
17:00+2se359580 0.0 1020199
20:00+2se4895100 0.0 1019257
7 december, tue
tue723:00+2se51198100 0.0 1019313
02:00+3se61397100 1.2 1017353
05:00+4sse51397100 0.7 1016369
08:00+5sse51495100 1.3 1016352
11:00+7s51292100 2.1 1015261
14:00+7sse4977100 2.1 1014280
17:00+5se4990100 0.0 1013170
20:00+5se41287100 0.0 1012235
8 december, wed
wed823:00+5se41189100 0.0 1011243
02:00+4ese41091100 0.0 1011213
05:00+4ese41093100 0.0 1009229
08:00+4ese51194100 0.0 1009298
11:00+6se61088100 0.0 1008364
14:00+7se5108486 0.0 1007380
17:00+5ese51194100 0.0 1007274
20:00+5se41093100 0.0 1007222